When you browse on this site, cookies collect data to enhance your experience and personalize the content and advertising you see.
Visit our Privacy Policy to learn more. By continuing to use the site, you agree to this use of cookies and data.
  • In Hungary
  • List of Countries
  • For 7 days
  • Water Temperature
  • Weather Map
  • News
  • Weather Widgets
  • user-avatar
    Login

    Hourly Weather Satif

    Today, 31 May, Sunday

    Time Temperature Precipitation Wind Pressure Humidity
    00:00 +14°C° 0 mm 1 mps 671 mmHg 69%
    01:00 +14°C° 0 mm 1 mps 671 mmHg 70%
    02:00 +13°C° 0 mm 1 mps 670 mmHg 70%
    03:00 +13°C° 0 mm 1 mps 670 mmHg 71%
    04:00 +14°C° 0 mm 1 mps 670 mmHg 66%
    05:00 +15°C° 0 mm 1 mps 670 mmHg 61%
    06:00 +16°C° 0 mm 1 mps 670 mmHg 57%
    07:00 +18°C° 0 mm 1 mps 671 mmHg 50%
    08:00 +20°C° 0 mm 1 mps 672 mmHg 43%
    09:00 +22°C° 0 mm 1 mps 673 mmHg 37%
    10:00 +23°C° 0 mm 2 mps 673 mmHg 34%
    11:00 +25°C° 0 mm 3 mps 673 mmHg 32%
    12:00 +26°C° 0 mm 3 mps 673 mmHg 30%
    13:00 +26°C° 0 mm 4 mps 673 mmHg 32%
    14:00 +26°C° 0 mm 4 mps 673 mmHg 34%
    15:00 +27°C° 0 mm 5 mps 673 mmHg 36%
    16:00 +26°C° 0 mm 4 mps 672 mmHg 40%
    17:00 +25°C° 0 mm 4 mps 672 mmHg 44%
    18:00 +24°C° 0 mm 3 mps 671 mmHg 48%
    19:00 +22°C° 0.4 mm 3 mps 671 mmHg 53%
    20:00 +21°C° 0.4 mm 2 mps 671 mmHg 57%
    21:00 +20°C° 0.4 mm 2 mps 672 mmHg 62%
    22:00 +20°C° 0.1 mm 2 mps 671 mmHg 62%
    23:00 +20°C° 0.1 mm 2 mps 671 mmHg 63%

    Tomorrow, 1 June, Monday

    Time Temperature Precipitation Wind Pressure Humidity
    00:00 +20°C° 0.1 mm 2 mps 670 mmHg 63%
    01:00 +19°C° 0 mm 2 mps 670 mmHg 65%
    02:00 +19°C° 0 mm 1 mps 670 mmHg 68%
    03:00 +19°C° 0 mm 1 mps 670 mmHg 70%
    04:00 +20°C° 0.1 mm 1 mps 670 mmHg 67%
    05:00 +21°C° 0.1 mm 1 mps 671 mmHg 64%
    06:00 +21°C° 0.1 mm 1 mps 671 mmHg 61%
    07:00 +23°C° 0 mm 2 mps 672 mmHg 56%
    08:00 +24°C° 0 mm 2 mps 672 mmHg 51%
    09:00 +25°C° 0 mm 3 mps 673 mmHg 47%
    10:00 +26°C° 0 mm 3 mps 673 mmHg 45%
    11:00 +27°C° 0 mm 3 mps 673 mmHg 43%
    12:00 +28°C° 0 mm 3 mps 673 mmHg 40%
    13:00 +28°C° 0.1 mm 3 mps 673 mmHg 41%
    14:00 +28°C° 0.1 mm 3 mps 673 mmHg 41%
    15:00 +28°C° 0.1 mm 4 mps 673 mmHg 42%
    16:00 +26°C° 0.1 mm 4 mps 672 mmHg 47%
    17:00 +25°C° 0.1 mm 4 mps 672 mmHg 51%
    18:00 +23°C° 0.1 mm 4 mps 672 mmHg 56%
    19:00 +22°C° 0.1 mm 3 mps 672 mmHg 60%
    20:00 +21°C° 0.1 mm 2 mps 672 mmHg 64%
    21:00 +21°C° 0.1 mm 1 mps 673 mmHg 68%
    22:00 +20°C° 0 mm 1 mps 672 mmHg 69%
    23:00 +20°C° 0 mm 1 mps 672 mmHg 70%

    Day after tomorrow, 2 June, Tuesday

    Time Temperature Precipitation Wind Pressure Humidity
    00:00 +20°C° 0 mm 1 mps 672 mmHg 71%
    01:00 +19°C° 0 mm 1 mps 672 mmHg 73%
    02:00 +19°C° 0 mm 1 mps 671 mmHg 74%
    03:00 +16°C° 0 mm 0 mps 671 mmHg 76%
    04:00 +19°C° 0 mm 1 mps 671 mmHg 73%
    05:00 +20°C° 0 mm 1 mps 672 mmHg 69%
    06:00 +21°C° 0 mm 1 mps 672 mmHg 66%
    07:00 +23°C° 0 mm 1 mps 673 mmHg 59%
    08:00 +24°C° 0 mm 2 mps 673 mmHg 53%
    09:00 +26°C° 0 mm 2 mps 674 mmHg 46%
    10:00 +27°C° 0 mm 2 mps 674 mmHg 41%
    11:00 +28°C° 0 mm 3 mps 674 mmHg 35%
    12:00 +30°C° 0 mm 4 mps 674 mmHg 30%
    13:00 +30°C° 0 mm 4 mps 673 mmHg 29%
    14:00 +30°C° 0 mm 4 mps 673 mmHg 29%
    15:00 +30°C° 0 mm 5 mps 673 mmHg 29%
    16:00 +29°C° 0 mm 4 mps 672 mmHg 32%
    17:00 +29°C° 0 mm 3 mps 672 mmHg 35%
    18:00 +28°C° 0 mm 3 mps 671 mmHg 39%
    19:00 +26°C° 0 mm 2 mps 671 mmHg 44%
    20:00 +25°C° 0 mm 2 mps 671 mmHg 49%
    21:00 +24°C° 0 mm 1 mps 671 mmHg 54%
    22:00 +23°C° 0 mm 2 mps 670 mmHg 54%
    23:00 +23°C° 0 mm 2 mps 670 mmHg 54%

    3 June, Wednesday

    Time Temperature Precipitation Wind Pressure Humidity
    00:00 +21°C° 0 mm 2 mps 670 mmHg 54%
    01:00 +21°C° 0.1 mm 2 mps 669 mmHg 56%
    02:00 +21°C° 0.1 mm 2 mps 669 mmHg 58%
    03:00 +20°C° 0.1 mm 3 mps 669 mmHg 60%
    04:00 +20°C° 0.1 mm 3 mps 669 mmHg 59%
    05:00 +21°C° 0.1 mm 3 mps 669 mmHg 59%
    06:00 +21°C° 0.1 mm 3 mps 669 mmHg 59%
    07:00 +24°C° 0 mm 3 mps 670 mmHg 52%
    08:00 +25°C° 0 mm 4 mps 671 mmHg 46%
    09:00 +27°C° 0 mm 5 mps 671 mmHg 40%
    10:00 +28°C° 0 mm 5 mps 671 mmHg 38%
    11:00 +28°C° 0 mm 4 mps 671 mmHg 37%
    12:00 +29°C° 0 mm 4 mps 671 mmHg 35%
    13:00 +29°C° 0 mm 4 mps 671 mmHg 34%
    14:00 +29°C° 0 mm 4 mps 671 mmHg 33%
    15:00 +30°C° 0 mm 4 mps 671 mmHg 32%
    16:00 +29°C° 0 mm 3 mps 671 mmHg 34%
    17:00 +28°C° 0 mm 3 mps 670 mmHg 37%
    18:00 +28°C° 0 mm 2 mps 670 mmHg 39%
    19:00 +26°C° 0 mm 2 mps 670 mmHg 45%
    20:00 +25°C° 0 mm 2 mps 670 mmHg 51%
    21:00 +23°C° 0 mm 2 mps 670 mmHg 58%
    22:00 +23°C° 0 mm 2 mps 670 mmHg 59%
    23:00 +21°C° 0 mm 2 mps 669 mmHg 61%

    4 June, Thursday

    Time Temperature Precipitation Wind Pressure Humidity
    00:00 +21°C° 0 mm 2 mps 669 mmHg 63%
    01:00 +21°C° 0 mm 2 mps 669 mmHg 62%
    02:00 +21°C° 0 mm 1 mps 669 mmHg 62%
    03:00 +21°C° 0 mm 1 mps 668 mmHg 61%
    04:00 +22°C° 0 mm 1 mps 669 mmHg 56%
    05:00 +23°C° 0 mm 1 mps 669 mmHg 52%
    06:00 +25°C° 0 mm 1 mps 669 mmHg 47%
    07:00 +26°C° 0 mm 3 mps 670 mmHg 41%
    08:00 +28°C° 0 mm 4 mps 670 mmHg 35%
    09:00 +30°C° 0 mm 6 mps 671 mmHg 29%
    10:00 +32°C° 0 mm 7 mps 671 mmHg 27%
    11:00 +33°C° 0 mm 9 mps 671 mmHg 25%
    12:00 +34°C° 0 mm 10 mps 671 mmHg 24%
    13:00 +34°C° 0 mm 10 mps 671 mmHg 24%
    14:00 +34°C° 0 mm 10 mps 670 mmHg 23%
    15:00 +34°C° 0 mm 10 mps 670 mmHg 23%
    16:00 +33°C° 0 mm 8 mps 670 mmHg 25%
    17:00 +32°C° 0 mm 7 mps 670 mmHg 26%
    18:00 +30°C° 0 mm 5 mps 669 mmHg 28%
    19:00 +30°C° 0.1 mm 6 mps 669 mmHg 30%
    20:00 +29°C° 0.1 mm 6 mps 669 mmHg 31%
    21:00 +28°C° 0.1 mm 6 mps 670 mmHg 33%
    22:00 +28°C° 0 mm 5 mps 669 mmHg 34%
    23:00 +27°C° 0 mm 4 mps 669 mmHg 35%

    5 June, Friday

    Time Temperature Precipitation Wind Pressure Humidity
    00:00 +27°C° 0 mm 3 mps 668 mmHg 37%
    01:00 +26°C° 0.1 mm 3 mps 668 mmHg 40%
    02:00 +25°C° 0.1 mm 2 mps 668 mmHg 43%
    03:00 +25°C° 0.1 mm 1 mps 668 mmHg 45%
    04:00 +24°C° 0.1 mm 2 mps 668 mmHg 47%
    05:00 +24°C° 0.1 mm 2 mps 668 mmHg 49%
    06:00 +24°C° 0.1 mm 2 mps 668 mmHg 51%
    07:00 +25°C° 0 mm 2 mps 669 mmHg 47%
    08:00 +27°C° 0 mm 2 mps 669 mmHg 43%
    09:00 +28°C° 0 mm 2 mps 669 mmHg 39%
    10:00 +29°C° 0 mm 3 mps 670 mmHg 37%
    11:00 +30°C° 0 mm 3 mps 670 mmHg 36%
    12:00 +30°C° 0 mm 4 mps 670 mmHg 34%
    13:00 +30°C° 0 mm 4 mps 670 mmHg 37%
    14:00 +29°C° 0 mm 4 mps 669 mmHg 40%
    15:00 +28°C° 0 mm 5 mps 669 mmHg 42%
    16:00 +26°C° 0 mm 5 mps 669 mmHg 46%
    17:00 +25°C° 0 mm 4 mps 669 mmHg 49%
    18:00 +22°C° 0 mm 4 mps 669 mmHg 52%
    19:00 +21°C° 0 mm 3 mps 670 mmHg 54%
    20:00 +20°C° 0 mm 3 mps 670 mmHg 56%
    21:00 +20°C° 0 mm 2 mps 671 mmHg 59%
    22:00 +19°C° 0 mm 2 mps 671 mmHg 59%
    23:00 +20°C° 0 mm 1 mps 671 mmHg 60%
    Show more